owner,sensor,date,latitude,longitude,vertical_datum,wind_speed,wind_to_direction,wind_speed_of_gust,qcFlag 
DISL,ioos:station:DISL:DISL:1,2011-10-01T00:00:00Z,30.2513,-88.0778,9.68,10.12,332.8,-9999.0,'1111122,1111122,1111122' 
DISL,ioos:station:DISL:DISL:1,2011-10-01T00:30:00Z,30.2513,-88.0778,9.68,8.88,338.4,-9999.0,'1111122,1111122,1111122' 
DISL,ioos:station:DISL:DISL:1,2011-10-01T01:00:00Z,30.2513,-88.0778,9.68,10.66,350.3,-9999.0,'1111122,1111122,1111122' 
DISL,ioos:station:DISL:DISL:1,2011-10-01T01:30:00Z,30.2513,-88.0778,9.68,8.99,344.4,-9999.0,'1111122,1111122,1111122' 
DISL,ioos:station:DISL:DISL:1,2011-10-01T02:00:00Z,30.2513,-88.0778,9.68,10.22,344.8,-9999.0,'1111122,1111122,1111122' 
DISL,ioos:station:DISL:DISL:1,2011-10-01T02:30:00Z,30.2513,-88.0778,9.68,11.26,353.0,-9999.0,'1111122,1111122,1111122' 
DISL,ioos:station:DISL:DISL:1,2011-10-01T03:00:00Z,30.2513,-88.0778,9.68,9.98,336.6,-9999.0,'1111122,1111122,1111122' 
DISL,ioos:station:DISL:DISL:1,2011-10-01T03:30:00Z,30.2513,-88.0778,9.68,9.31,340.5,-9999.0,'1111122,1111122,1111122' 
DISL,ioos:station:DISL:DISL:1,2011-10-01T04:00:00Z,30.2513,-88.0778,9.68,9.73,345.8,-9999.0,'1111122,1111122,1111122' 
DISL,ioos:station:DISL:DISL:1,2011-10-01T04:30:00Z,30.2513,-88.0778,9.68,9.51,348.7,-9999.0,'1111122,1111122,1111122' 
DISL,ioos:station:DISL:DISL:1,2011-10-01T05:00:00Z,30.2513,-88.0778,9.68,10.29,347.7,-9999.0,'1111122,1111122,1111122' 
DISL,ioos:station:DISL:DISL:1,2011-10-01T05:30:00Z,30.2513,-88.0778,9.68,11.71,3.06,-9999.0,'1111122,1111122,1111122' 
DISL,ioos:station:DISL:DISL:1,2011-10-01T06:00:00Z,30.2513,-88.0778,9.68,11.25,357.3,-9999.0,'1111122,1111122,1111122' 
DISL,ioos:station:DISL:DISL:1,2011-10-01T06:30:00Z,30.2513,-88.0778,9.68,11.68,1.581,-9999.0,'1111122,1111122,1111122' 
DISL,ioos:station:DISL:DISL:1,2011-10-01T07:00:00Z,30.2513,-88.0778,9.68,10.97,10.74,-9999.0,'1111122,1111122,1111122' 
DISL,ioos:station:DISL:DISL:1,2011-10-01T07:30:00Z,30.2513,-88.0778,9.68,11.83,9.59,-9999.0,'1111122,1111122,1111122' 
DISL,ioos:station:DISL:DISL:1,2011-10-01T08:00:00Z,30.2513,-88.0778,9.68,11.72,7.33,-9999.0,'1111122,1111122,1111122' 
DISL,ioos:station:DISL:DISL:1,2011-10-01T08:30:00Z,30.2513,-88.0778,9.68,11.6,17.06,-9999.0,'1111122,1111122,1111122' 
DISL,ioos:station:DISL:DISL:1,2011-10-01T09:00:00Z,30.2513,-88.0778,9.68,11.65,22.56,-9999.0,'1111122,1111122,1111122' 
DISL,ioos:station:DISL:DISL:1,2011-10-01T09:30:00Z,30.2513,-88.0778,9.68,10.69,26.87,-9999.0,'1111122,1111122,1111122' 
DISL,ioos:station:DISL:DISL:1,2011-10-01T10:00:00Z,30.2513,-88.0778,9.68,10.21,23.96,-9999.0,'1111122,1111122,1111122' 
DISL,ioos:station:DISL:DISL:1,2011-10-01T10:30:00Z,30.2513,-88.0778,9.68,10.97,23.67,-9999.0,'1111122,1111122,1111122' 
DISL,ioos:station:DISL:DISL:1,2011-10-01T11:00:00Z,30.2513,-88.0778,9.68,11.16,28.18,-9999.0,'1111122,1111122,1111122' 
DISL,ioos:station:DISL:DISL:1,2011-10-01T11:30:00Z,30.2513,-88.0778,9.68,10.35,28.42,-9999.0,'1111122,1111122,1111122' 
DISL,ioos:station:DISL:DISL:1,2011-10-01T12:00:00Z,30.2513,-88.0778,9.68,9.58,26.49,-9999.0,'1111122,1111122,1111122' 
DISL,ioos:station:DISL:DISL:1,2011-10-01T12:30:00Z,30.2513,-88.0778,9.68,8.93,35.34,-9999.0,'1111122,1111122,1111122' 
DISL,ioos:station:DISL:DISL:1,2011-10-01T13:00:00Z,30.2513,-88.0778,9.68,8.36,32.51,-9999.0,'1111122,1111122,1111122' 
DISL,ioos:station:DISL:DISL:1,2011-10-01T13:30:00Z,30.2513,-88.0778,9.68,8.12,34.54,-9999.0,'1111122,1111122,1111122' 
DISL,ioos:station:DISL:DISL:1,2011-10-01T14:00:00Z,30.2513,-88.0778,9.68,7.68,31.7,-9999.0,'1111122,1111122,1111122' 
DISL,ioos:station:DISL:DISL:1,2011-10-01T14:30:00Z,30.2513,-88.0778,9.68,6.71,30.2,-9999.0,'1111122,1111122,1111122' 
DISL,ioos:station:DISL:DISL:1,2011-10-01T15:00:00Z,30.2513,-88.0778,9.68,5.49,34.13,-9999.0,'1111122,1111122,1111122' 
DISL,ioos:station:DISL:DISL:1,2011-10-01T15:30:00Z,30.2513,-88.0778,9.68,6.42,39.66,-9999.0,'1111122,1111122,1111122' 
DISL,ioos:station:DISL:DISL:1,2011-10-01T16:00:00Z,30.2513,-88.0778,9.68,4.83,33.29,-9999.0,'1111122,1111122,1111122' 
DISL,ioos:station:DISL:DISL:1,2011-10-01T16:30:00Z,30.2513,-88.0778,9.68,4.07,2.258,-9999.0,'1111122,1111122,1111122' 
DISL,ioos:station:DISL:DISL:1,2011-10-01T17:00:00Z,30.2513,-88.0778,9.68,4.66,352.0,-9999.0,'1111122,1111122,1111122' 
DISL,ioos:station:DISL:DISL:1,2011-10-01T17:30:00Z,30.2513,-88.0778,9.68,6.03,4.229,-9999.0,'1111122,1111122,1111122' 
DISL,ioos:station:DISL:DISL:1,2011-10-01T18:00:00Z,30.2513,-88.0778,9.68,6.7,358.1,-9999.0,'1111122,1111122,1111122' 
DISL,ioos:station:DISL:DISL:1,2011-10-01T18:30:00Z,30.2513,-88.0778,9.68,7.96,1.198,-9999.0,'1111122,1111122,1111122' 
DISL,ioos:station:DISL:DISL:1,2011-10-01T19:00:00Z,30.2513,-88.0778,9.68,7.52,9.46,-9999.0,'1111122,1111122,1111122' 
DISL,ioos:station:DISL:DISL:1,2011-10-01T19:30:00Z,30.2513,-88.0778,9.68,7.69,7.09,-9999.0,'1111122,1111122,1111122' 
DISL,ioos:station:DISL:DISL:1,2011-10-01T20:00:00Z,30.2513,-88.0778,9.68,7.13,14.14,-9999.0,'1111122,1111122,1111122' 
DISL,ioos:station:DISL:DISL:1,2011-10-01T20:30:00Z,30.2513,-88.0778,9.68,6.33,12.17,-9999.0,'1111122,1111122,1111122' 
DISL,ioos:station:DISL:DISL:1,2011-10-01T21:00:00Z,30.2513,-88.0778,9.68,6.39,1.86,-9999.0,'1111122,1111122,1111122' 
DISL,ioos:station:DISL:DISL:1,2011-10-01T21:30:00Z,30.2513,-88.0778,9.68,5.9,351.9,-9999.0,'1111122,1111122,1111122' 
DISL,ioos:station:DISL:DISL:1,2011-10-01T22:00:00Z,30.2513,-88.0778,9.68,6.52,358.5,-9999.0,'1111122,1111122,1111122' 
DISL,ioos:station:DISL:DISL:1,2011-10-01T22:30:00Z,30.2513,-88.0778,9.68,8.3,347.0,-9999.0,'1111122,1111122,1111122' 
DISL,ioos:station:DISL:DISL:1,2011-10-01T23:00:00Z,30.2513,-88.0778,9.68,6.63,346.9,-9999.0,'1111122,1111122,1111122' 
DISL,ioos:station:DISL:DISL:1,2011-10-01T23:30:00Z,30.2513,-88.0778,9.68,6.96,334.0,-9999.0,'1111122,1111122,1111122' 
DISL,ioos:station:DISL:DISL:1,2011-10-02T00:00:00Z,30.2513,-88.0778,9.68,7.26,337.0,-9999.0,'1111122,1111122,1111122' 
DISL,ioos:station:DISL:DISL:1,2011-10-02T00:30:00Z,30.2513,-88.0778,9.68,9.45,354.4,-9999.0,'1111122,1111122,1111122' 
DISL,ioos:station:DISL:DISL:1,2011-10-02T01:00:00Z,30.2513,-88.0778,9.68,9.87,9.81,-9999.0,'1111122,1111122,1111122' 
DISL,ioos:station:DISL:DISL:1,2011-10-02T01:30:00Z,30.2513,-88.0778,9.68,9.14,6.965,-9999.0,'1111122,1111122,1111122' 
DISL,ioos:station:DISL:DISL:1,2011-10-02T02:00:00Z,30.2513,-88.0778,9.68,9.39,6.982,-9999.0,'1111122,1111122,1111122' 
DISL,ioos:station:DISL:DISL:1,2011-10-02T02:30:00Z,30.2513,-88.0778,9.68,9.54,1.537,-9999.0,'1111122,1111122,1111122' 
DISL,ioos:station:DISL:DISL:1,2011-10-02T03:00:00Z,30.2513,-88.0778,9.68,10.7,4.039,-9999.0,'1111122,1111122,1111122' 
DISL,ioos:station:DISL:DISL:1,2011-10-02T03:30:00Z,30.2513,-88.0778,9.68,10.27,3.717,-9999.0,'1111122,1111122,1111122' 
DISL,ioos:station:DISL:DISL:1,2011-10-02T04:00:00Z,30.2513,-88.0778,9.68,10.75,7.56,-9999.0,'1111122,1111122,1111122' 
DISL,ioos:station:DISL:DISL:1,2011-10-02T04:30:00Z,30.2513,-88.0778,9.68,10.03,8.44,-9999.0,'1111122,1111122,1111122' 
DISL,ioos:station:DISL:DISL:1,2011-10-02T05:00:00Z,30.2513,-88.0778,9.68,10.06,15.81,-9999.0,'1111122,1111122,1111122' 
DISL,ioos:station:DISL:DISL:1,2011-10-02T05:30:00Z,30.2513,-88.0778,9.68,10.05,28.1,-9999.0,'1111122,1111122,1111122' 
DISL,ioos:station:DISL:DISL:1,2011-10-02T06:00:00Z,30.2513,-88.0778,9.68,9.59,28.3,-9999.0,'1111122,1111122,1111122' 
DISL,ioos:station:DISL:DISL:1,2011-10-02T06:30:00Z,30.2513,-88.0778,9.68,9.88,31.88,-9999.0,'1111122,1111122,1111122' 
DISL,ioos:station:DISL:DISL:1,2011-10-02T07:00:00Z,30.2513,-88.0778,9.68,9.35,30.62,-9999.0,'1111122,1111122,1111122' 
DISL,ioos:station:DISL:DISL:1,2011-10-02T07:30:00Z,30.2513,-88.0778,9.68,9.35,35.04,-9999.0,'1111122,1111122,1111122' 
DISL,ioos:station:DISL:DISL:1,2011-10-02T08:00:00Z,30.2513,-88.0778,9.68,9.72,34.77,-9999.0,'1111122,1111122,1111122' 
DISL,ioos:station:DISL:DISL:1,2011-10-02T08:30:00Z,30.2513,-88.0778,9.68,9.39,37.18,-9999.0,'1111122,1111122,1111122' 
DISL,ioos:station:DISL:DISL:1,2011-10-02T09:00:00Z,30.2513,-88.0778,9.68,9.75,39.77,-9999.0,'1111122,1111122,1111122' 
DISL,ioos:station:DISL:DISL:1,2011-10-02T09:30:00Z,30.2513,-88.0778,9.68,8.61,41.37,-9999.0,'1111122,1111122,1111122' 
DISL,ioos:station:DISL:DISL:1,2011-10-02T10:00:00Z,30.2513,-88.0778,9.68,8.95,40.75,-9999.0,'1111122,1111122,1111122' 
DISL,ioos:station:DISL:DISL:1,2011-10-02T10:30:00Z,30.2513,-88.0778,9.68,8.94,42.78,-9999.0,'1111122,1111122,1111122' 
DISL,ioos:station:DISL:DISL:1,2011-10-02T11:00:00Z,30.2513,-88.0778,9.68,8.69,44.1,-9999.0,'1111122,1111122,1111122' 
DISL,ioos:station:DISL:DISL:1,2011-10-02T11:30:00Z,30.2513,-88.0778,9.68,8.93,48.04,-9999.0,'1111122,1111122,1111122' 
DISL,ioos:station:DISL:DISL:1,2011-10-02T12:00:00Z,30.2513,-88.0778,9.68,9.51,51.8,-9999.0,'1111122,1111122,1111122' 
DISL,ioos:station:DISL:DISL:1,2011-10-02T12:30:00Z,30.2513,-88.0778,9.68,8.82,52.75,-9999.0,'1111122,1111122,1111122' 
DISL,ioos:station:DISL:DISL:1,2011-10-02T13:00:00Z,30.2513,-88.0778,9.68,8.54,55.85,-9999.0,'1111122,1111122,1111122' 
DISL,ioos:station:DISL:DISL:1,2011-10-02T13:30:00Z,30.2513,-88.0778,9.68,8.11,54.72,-9999.0,'1111122,1111122,1111122' 
DISL,ioos:station:DISL:DISL:1,2011-10-02T14:00:00Z,30.2513,-88.0778,9.68,7.78,51.94,-9999.0,'1111122,1111122,1111122' 
DISL,ioos:station:DISL:DISL:1,2011-10-02T14:30:00Z,30.2513,-88.0778,9.68,7.02,49.73,-9999.0,'1111122,1111122,1111122' 
DISL,ioos:station:DISL:DISL:1,2011-10-02T15:00:00Z,30.2513,-88.0778,9.68,6.46,45.28,-9999.0,'1111122,1111122,1111122' 
DISL,ioos:station:DISL:DISL:1,2011-10-02T15:30:00Z,30.2513,-88.0778,9.68,6.1,32.77,-9999.0,'1111122,1111122,1111122' 
DISL,ioos:station:DISL:DISL:1,2011-10-02T16:00:00Z,30.2513,-88.0778,9.68,5.22,35.98,-9999.0,'1111122,1111122,1111122' 
DISL,ioos:station:DISL:DISL:1,2011-10-02T16:30:00Z,30.2513,-88.0778,9.68,4.78,17.05,-9999.0,'1111122,1111122,1111122' 
DISL,ioos:station:DISL:DISL:1,2011-10-02T17:00:00Z,30.2513,-88.0778,9.68,4.42,15.64,-9999.0,'1111122,1111122,1111122' 
DISL,ioos:station:DISL:DISL:1,2011-10-02T17:30:00Z,30.2513,-88.0778,9.68,4.32,11.31,-9999.0,'1111122,1111122,1111122' 
DISL,ioos:station:DISL:DISL:1,2011-10-02T18:00:00Z,30.2513,-88.0778,9.68,4.84,350.9,-9999.0,'1111122,1111122,1111122' 
DISL,ioos:station:DISL:DISL:1,2011-10-02T18:30:00Z,30.2513,-88.0778,9.68,4.99,345.9,-9999.0,'1111122,1111122,1111122' 
DISL,ioos:station:DISL:DISL:1,2011-10-02T19:00:00Z,30.2513,-88.0778,9.68,5.31,6.829,-9999.0,'1111122,1111122,1111122' 
DISL,ioos:station:DISL:DISL:1,2011-10-02T19:30:00Z,30.2513,-88.0778,9.68,4.73,2.727,-9999.0,'1111122,1111122,1111122' 
DISL,ioos:station:DISL:DISL:1,2011-10-02T20:00:00Z,30.2513,-88.0778,9.68,4.63,12.27,-9999.0,'1111122,1111122,1111122' 
DISL,ioos:station:DISL:DISL:1,2011-10-02T20:30:00Z,30.2513,-88.0778,9.68,5.63,14.15,-9999.0,'1111122,1111122,1111122' 
DISL,ioos:station:DISL:DISL:1,2011-10-02T21:00:00Z,30.2513,-88.0778,9.68,4.81,14.84,-9999.0,'1111122,1111122,1111122' 
DISL,ioos:station:DISL:DISL:1,2011-10-02T21:30:00Z,30.2513,-88.0778,9.68,3.88,0.395,-9999.0,'1111122,1111122,1111122' 
DISL,ioos:station:DISL:DISL:1,2011-10-02T22:00:00Z,30.2513,-88.0778,9.68,4.11,357.4,-9999.0,'1111122,1111122,1111122' 
DISL,ioos:station:DISL:DISL:1,2011-10-02T22:30:00Z,30.2513,-88.0778,9.68,3.25,307.7,-9999.0,'1111122,1111122,1111122' 
DISL,ioos:station:DISL:DISL:1,2011-10-02T23:00:00Z,30.2513,-88.0778,9.68,2.87,278.8,-9999.0,'1111122,1111122,1111122' 
DISL,ioos:station:DISL:DISL:1,2011-10-02T23:30:00Z,30.2513,-88.0778,9.68,1.79,254.5,-9999.0,'1111122,1111122,1111122' 
DISL,ioos:station:DISL:DISL:1,2011-10-03T00:00:00Z,30.2513,-88.0778,9.68,2.0,247.1,-9999.0,'1111122,1111122,1111122' 
DISL,ioos:station:DISL:DISL:1,2011-10-03T00:30:00Z,30.2513,-88.0778,9.68,1.84,265.9,-9999.0,'1111122,1111122,1111122' 
DISL,ioos:station:DISL:DISL:1,2011-10-03T01:00:00Z,30.2513,-88.0778,9.68,5.94,341.5,-9999.0,'1111122,1111122,1111122' 
DISL,ioos:station:DISL:DISL:1,2011-10-03T01:30:00Z,30.2513,-88.0778,9.68,6.02,345.9,-9999.0,'1111122,1111122,1111122' 
DISL,ioos:station:DISL:DISL:1,2011-10-03T02:00:00Z,30.2513,-88.0778,9.68,6.18,341.7,-9999.0,'1111122,1111122,1111122' 
DISL,ioos:station:DISL:DISL:1,2011-10-03T02:30:00Z,30.2513,-88.0778,9.68,5.86,338.8,-9999.0,'1111122,1111122,1111122' 
DISL,ioos:station:DISL:DISL:1,2011-10-03T03:00:00Z,30.2513,-88.0778,9.68,6.32,344.0,-9999.0,'1111122,1111122,1111122' 
DISL,ioos:station:DISL:DISL:1,2011-10-03T03:30:00Z,30.2513,-88.0778,9.68,6.74,347.5,-9999.0,'1111122,1111122,1111122' 
DISL,ioos:station:DISL:DISL:1,2011-10-03T04:00:00Z,30.2513,-88.0778,9.68,7.37,341.1,-9999.0,'1111122,1111122,1111122' 
DISL,ioos:station:DISL:DISL:1,2011-10-03T04:30:00Z,30.2513,-88.0778,9.68,8.98,4.802,-9999.0,'1111122,1111122,1111122' 
DISL,ioos:station:DISL:DISL:1,2011-10-03T05:00:00Z,30.2513,-88.0778,9.68,8.19,7.56,-9999.0,'1111122,1111122,1111122' 
DISL,ioos:station:DISL:DISL:1,2011-10-03T05:30:00Z,30.2513,-88.0778,9.68,7.42,10.94,-9999.0,'1111122,1111122,1111122' 
DISL,ioos:station:DISL:DISL:1,2011-10-03T06:00:00Z,30.2513,-88.0778,9.68,7.02,8.2,-9999.0,'1111122,1111122,1111122' 
DISL,ioos:station:DISL:DISL:1,2011-10-03T06:30:00Z,30.2513,-88.0778,9.68,7.41,6.504,-9999.0,'1111122,1111122,1111122' 
DISL,ioos:station:DISL:DISL:1,2011-10-03T07:00:00Z,30.2513,-88.0778,9.68,7.12,9.08,-9999.0,'1111122,1111122,1111122' 
DISL,ioos:station:DISL:DISL:1,2011-10-03T07:30:00Z,30.2513,-88.0778,9.68,7.58,14.88,-9999.0,'1111122,1111122,1111122' 
DISL,ioos:station:DISL:DISL:1,2011-10-03T08:00:00Z,30.2513,-88.0778,9.68,7.14,12.36,-9999.0,'1111122,1111122,1111122' 
DISL,ioos:station:DISL:DISL:1,2011-10-03T08:30:00Z,30.2513,-88.0778,9.68,7.41,12.94,-9999.0,'1111122,1111122,1111122' 
DISL,ioos:station:DISL:DISL:1,2011-10-03T09:00:00Z,30.2513,-88.0778,9.68,7.98,19.99,-9999.0,'1111122,1111122,1111122' 
DISL,ioos:station:DISL:DISL:1,2011-10-03T09:30:00Z,30.2513,-88.0778,9.68,8.08,24.05,-9999.0,'1111122,1111122,1111122' 
DISL,ioos:station:DISL:DISL:1,2011-10-03T10:00:00Z,30.2513,-88.0778,9.68,8.03,35.45,-9999.0,'1111122,1111122,1111122' 
DISL,ioos:station:DISL:DISL:1,2011-10-03T10:30:00Z,30.2513,-88.0778,9.68,8.11,42.26,-9999.0,'1111122,1111122,1111122' 
DISL,ioos:station:DISL:DISL:1,2011-10-03T11:00:00Z,30.2513,-88.0778,9.68,8.63,49.19,-9999.0,'1111122,1111122,1111122' 
DISL,ioos:station:DISL:DISL:1,2011-10-03T11:30:00Z,30.2513,-88.0778,9.68,8.2,52.43,-9999.0,'1111122,1111122,1111122' 
DISL,ioos:station:DISL:DISL:1,2011-10-03T12:00:00Z,30.2513,-88.0778,9.68,8.15,58.92,-9999.0,'1111122,1111122,1111122' 
DISL,ioos:station:DISL:DISL:1,2011-10-03T12:30:00Z,30.2513,-88.0778,9.68,8.44,58.05,-9999.0,'1111122,1111122,1111122' 
DISL,ioos:station:DISL:DISL:1,2011-10-03T13:00:00Z,30.2513,-88.0778,9.68,8.12,62.83,-9999.0,'1111122,1111122,1111122' 
DISL,ioos:station:DISL:DISL:1,2011-10-03T13:30:00Z,30.2513,-88.0778,9.68,7.37,56.41,-9999.0,'1111122,1111122,1111122' 
DISL,ioos:station:DISL:DISL:1,2011-10-03T14:00:00Z,30.2513,-88.0778,9.68,7.35,62.61,-9999.0,'1111122,1111122,1111122' 
DISL,ioos:station:DISL:DISL:1,2011-10-03T14:30:00Z,30.2513,-88.0778,9.68,7.7,63.07,-9999.0,'1111122,1111122,1111122' 
DISL,ioos:station:DISL:DISL:1,2011-10-03T15:00:00Z,30.2513,-88.0778,9.68,6.88,66.73,-9999.0,'1111122,1111122,1111122' 
DISL,ioos:station:DISL:DISL:1,2011-10-03T15:30:00Z,30.2513,-88.0778,9.68,5.67,69.46,-9999.0,'1111122,1111122,1111122' 
DISL,ioos:station:DISL:DISL:1,2011-10-03T16:00:00Z,30.2513,-88.0778,9.68,4.21,66.18,-9999.0,'1111122,1111122,1111122' 
DISL,ioos:station:DISL:DISL:1,2011-10-03T16:30:00Z,30.2513,-88.0778,9.68,3.99,60.47,-9999.0,'1111122,1111122,1111122' 
DISL,ioos:station:DISL:DISL:1,2011-10-03T17:00:00Z,30.2513,-88.0778,9.68,3.33,40.75,-9999.0,'1111122,1111122,1111122' 
DISL,ioos:station:DISL:DISL:1,2011-10-03T17:30:00Z,30.2513,-88.0778,9.68,3.24,30.18,-9999.0,'1111122,1111122,1111122' 
DISL,ioos:station:DISL:DISL:1,2011-10-03T18:00:00Z,30.2513,-88.0778,9.68,3.64,16.59,-9999.0,'1111122,1111122,1111122' 
DISL,ioos:station:DISL:DISL:1,2011-10-03T18:30:00Z,30.2513,-88.0778,9.68,2.5,345.0,-9999.0,'1111122,1111122,1111122' 
DISL,ioos:station:DISL:DISL:1,2011-10-03T19:00:00Z,30.2513,-88.0778,9.68,3.2,329.5,-9999.0,'1111122,1111122,1111122' 
DISL,ioos:station:DISL:DISL:1,2011-10-03T19:30:00Z,30.2513,-88.0778,9.68,2.37,338.9,-9999.0,'1111122,1111122,1111122' 
DISL,ioos:station:DISL:DISL:1,2011-10-03T20:00:00Z,30.2513,-88.0778,9.68,0.88,317.4,-9999.0,'1111122,1111122,1111122' 
DISL,ioos:station:DISL:DISL:1,2011-10-03T20:30:00Z,30.2513,-88.0778,9.68,1.87,350.3,-9999.0,'1111122,1111122,1111122' 
DISL,ioos:station:DISL:DISL:1,2011-10-03T21:00:00Z,30.2513,-88.0778,9.68,2.36,335.1,-9999.0,'1111122,1111122,1111122' 
DISL,ioos:station:DISL:DISL:1,2011-10-03T21:30:00Z,30.2513,-88.0778,9.68,2.53,341.0,-9999.0,'1111122,1111122,1111122' 
DISL,ioos:station:DISL:DISL:1,2011-10-03T22:00:00Z,30.2513,-88.0778,9.68,1.9,351.0,-9999.0,'1111122,1111122,1111122' 
DISL,ioos:station:DISL:DISL:1,2011-10-03T22:30:00Z,30.2513,-88.0778,9.68,3.47,348.6,-9999.0,'1111122,1111122,1111122' 
DISL,ioos:station:DISL:DISL:1,2011-10-03T23:00:00Z,30.2513,-88.0778,9.68,4.69,343.8,-9999.0,'1111122,1111122,1111122' 
DISL,ioos:station:DISL:DISL:1,2011-10-03T23:30:00Z,30.2513,-88.0778,9.68,3.68,343.5,-9999.0,'1111122,1111122,1111122' 
DISL,ioos:station:DISL:DISL:1,2011-10-04T00:00:00Z,30.2513,-88.0778,9.68,2.32,285.1,-9999.0,'1111122,1111122,1111122' 
DISL,ioos:station:DISL:DISL:1,2011-10-04T00:30:00Z,30.2513,-88.0778,9.68,1.78,275.8,-9999.0,'1111122,1111122,1111122' 
DISL,ioos:station:DISL:DISL:1,2011-10-04T01:00:00Z,30.2513,-88.0778,9.68,2.68,295.2,-9999.0,'1111122,1111122,1111122' 
DISL,ioos:station:DISL:DISL:1,2011-10-04T01:30:00Z,30.2513,-88.0778,9.68,4.07,299.0,-9999.0,'1111122,1111122,1111122' 
DISL,ioos:station:DISL:DISL:1,2011-10-04T02:00:00Z,30.2513,-88.0778,9.68,4.2,314.8,-9999.0,'1111122,1111122,1111122' 
DISL,ioos:station:DISL:DISL:1,2011-10-04T02:30:00Z,30.2513,-88.0778,9.68,3.51,331.0,-9999.0,'1111122,1111122,1111122' 
DISL,ioos:station:DISL:DISL:1,2011-10-04T03:00:00Z,30.2513,-88.0778,9.68,3.42,331.3,-9999.0,'1111122,1111122,1111122' 
DISL,ioos:station:DISL:DISL:1,2011-10-04T03:30:00Z,30.2513,-88.0778,9.68,3.28,336.1,-9999.0,'1111122,1111122,1111122' 
DISL,ioos:station:DISL:DISL:1,2011-10-04T04:00:00Z,30.2513,-88.0778,9.68,3.4,349.5,-9999.0,'1111122,1111122,1111122' 
DISL,ioos:station:DISL:DISL:1,2011-10-04T04:30:00Z,30.2513,-88.0778,9.68,3.51,351.4,-9999.0,'1111122,1111122,1111122' 
DISL,ioos:station:DISL:DISL:1,2011-10-04T05:00:00Z,30.2513,-88.0778,9.68,3.99,349.7,-9999.0,'1111122,1111122,1111122' 
DISL,ioos:station:DISL:DISL:1,2011-10-04T05:30:00Z,30.2513,-88.0778,9.68,3.92,352.3,-9999.0,'1111122,1111122,1111122' 
DISL,ioos:station:DISL:DISL:1,2011-10-04T06:00:00Z,30.2513,-88.0778,9.68,3.48,341.1,-9999.0,'1111122,1111122,1111122' 
DISL,ioos:station:DISL:DISL:1,2011-10-04T06:30:00Z,30.2513,-88.0778,9.68,4.4,2.872,-9999.0,'1111122,1111122,1111122' 
DISL,ioos:station:DISL:DISL:1,2011-10-04T07:00:00Z,30.2513,-88.0778,9.68,5.91,11.14,-9999.0,'1111122,1111122,1111122' 
DISL,ioos:station:DISL:DISL:1,2011-10-04T07:30:00Z,30.2513,-88.0778,9.68,6.21,13.44,-9999.0,'1111122,1111122,1111122' 
DISL,ioos:station:DISL:DISL:1,2011-10-04T08:00:00Z,30.2513,-88.0778,9.68,6.01,17.92,-9999.0,'1111122,1111122,1111122' 
DISL,ioos:station:DISL:DISL:1,2011-10-04T08:30:00Z,30.2513,-88.0778,9.68,5.66,17.33,-9999.0,'1111122,1111122,1111122' 
DISL,ioos:station:DISL:DISL:1,2011-10-04T09:00:00Z,30.2513,-88.0778,9.68,6.15,15.3,-9999.0,'1111122,1111122,1111122' 
DISL,ioos:station:DISL:DISL:1,2011-10-04T09:30:00Z,30.2513,-88.0778,9.68,6.24,17.96,-9999.0,'1111122,1111122,1111122' 
DISL,ioos:station:DISL:DISL:1,2011-10-04T10:00:00Z,30.2513,-88.0778,9.68,6.83,17.44,-9999.0,'1111122,1111122,1111122' 
DISL,ioos:station:DISL:DISL:1,2011-10-04T10:30:00Z,30.2513,-88.0778,9.68,6.57,27.77,-9999.0,'1111122,1111122,1111122' 
DISL,ioos:station:DISL:DISL:1,2011-10-04T11:00:00Z,30.2513,-88.0778,9.68,6.29,36.98,-9999.0,'1111122,1111122,1111122' 
DISL,ioos:station:DISL:DISL:1,2011-10-04T11:30:00Z,30.2513,-88.0778,9.68,5.75,37.07,-9999.0,'1111122,1111122,1111122' 
DISL,ioos:station:DISL:DISL:1,2011-10-04T12:00:00Z,30.2513,-88.0778,9.68,6.3,41.87,-9999.0,'1111122,1111122,1111122' 
DISL,ioos:station:DISL:DISL:1,2011-10-04T12:30:00Z,30.2513,-88.0778,9.68,6.13,42.49,-9999.0,'1111122,1111122,1111122' 
DISL,ioos:station:DISL:DISL:1,2011-10-04T13:00:00Z,30.2513,-88.0778,9.68,5.63,44.6,-9999.0,'1111122,1111122,1111122' 
DISL,ioos:station:DISL:DISL:1,2011-10-04T13:30:00Z,30.2513,-88.0778,9.68,4.99,44.03,-9999.0,'1111122,1111122,1111122' 
DISL,ioos:station:DISL:DISL:1,2011-10-04T14:00:00Z,30.2513,-88.0778,9.68,5.03,46.15,-9999.0,'1111122,1111122,1111122' 
DISL,ioos:station:DISL:DISL:1,2011-10-04T14:30:00Z,30.2513,-88.0778,9.68,4.98,45.84,-9999.0,'1111122,1111122,1111122' 
DISL,ioos:station:DISL:DISL:1,2011-10-04T15:00:00Z,30.2513,-88.0778,9.68,4.71,41.64,-9999.0,'1111122,1111122,1111122' 
DISL,ioos:station:DISL:DISL:1,2011-10-04T15:30:00Z,30.2513,-88.0778,9.68,4.36,44.86,-9999.0,'1111122,1111122,1111122' 
DISL,ioos:station:DISL:DISL:1,2011-10-04T16:00:00Z,30.2513,-88.0778,9.68,3.81,41.05,-9999.0,'1111122,1111122,1111122' 
DISL,ioos:station:DISL:DISL:1,2011-10-04T16:30:00Z,30.2513,-88.0778,9.68,3.72,30.93,-9999.0,'1111122,1111122,1111122' 
DISL,ioos:station:DISL:DISL:1,2011-10-04T17:00:00Z,30.2513,-88.0778,9.68,3.42,13.81,-9999.0,'1111122,1111122,1111122' 
DISL,ioos:station:DISL:DISL:1,2011-10-04T17:30:00Z,30.2513,-88.0778,9.68,3.46,8.22,-9999.0,'1111122,1111122,1111122' 
DISL,ioos:station:DISL:DISL:1,2011-10-04T18:00:00Z,30.2513,-88.0778,9.68,3.36,1.7,-9999.0,'1111122,1111122,1111122' 
DISL,ioos:station:DISL:DISL:1,2011-10-04T18:30:00Z,30.2513,-88.0778,9.68,2.92,355.6,-9999.0,'1111122,1111122,1111122' 
DISL,ioos:station:DISL:DISL:1,2011-10-04T19:00:00Z,30.2513,-88.0778,9.68,2.7,346.3,-9999.0,'1111122,1111122,1111122' 
DISL,ioos:station:DISL:DISL:1,2011-10-04T19:30:00Z,30.2513,-88.0778,9.68,2.88,338.6,-9999.0,'1111122,1111122,1111122' 
DISL,ioos:station:DISL:DISL:1,2011-10-04T20:00:00Z,30.2513,-88.0778,9.68,2.96,336.6,-9999.0,'1111122,1111122,1111122' 
DISL,ioos:station:DISL:DISL:1,2011-10-04T20:30:00Z,30.2513,-88.0778,9.68,2.84,343.7,-9999.0,'1111122,1111122,1111122' 
DISL,ioos:station:DISL:DISL:1,2011-10-04T21:00:00Z,30.2513,-88.0778,9.68,2.42,348.4,-9999.0,'1111122,1111122,1111122' 
DISL,ioos:station:DISL:DISL:1,2011-10-04T21:30:00Z,30.2513,-88.0778,9.68,2.12,349.8,-9999.0,'1111122,1111122,1111122' 
DISL,ioos:station:DISL:DISL:1,2011-10-04T22:00:00Z,30.2513,-88.0778,9.68,2.14,346.8,-9999.0,'1111122,1111122,1111122' 
DISL,ioos:station:DISL:DISL:1,2011-10-04T22:30:00Z,30.2513,-88.0778,9.68,2.6,355.7,-9999.0,'1111122,1111122,1111122' 
DISL,ioos:station:DISL:DISL:1,2011-10-04T23:00:00Z,30.2513,-88.0778,9.68,2.16,337.2,-9999.0,'1111122,1111122,1111122' 
DISL,ioos:station:DISL:DISL:1,2011-10-04T23:30:00Z,30.2513,-88.0778,9.68,1.79,331.7,-9999.0,'1111122,1111122,1111122' 
DISL,ioos:station:DISL:DISL:1,2011-10-05T00:00:00Z,30.2513,-88.0778,9.68,1.2,321.8,-9999.0,'1111122,1111122,1111122' 
DISL,ioos:station:DISL:DISL:1,2011-10-05T00:30:00Z,30.2513,-88.0778,9.68,1.88,299.4,-9999.0,'1111122,1111122,1111122' 
DISL,ioos:station:DISL:DISL:1,2011-10-05T01:00:00Z,30.2513,-88.0778,9.68,1.83,301.0,-9999.0,'1111122,1111122,1111122' 
DISL,ioos:station:DISL:DISL:1,2011-10-05T01:30:00Z,30.2513,-88.0778,9.68,2.76,339.4,-9999.0,'1111122,1111122,1111122' 
DISL,ioos:station:DISL:DISL:1,2011-10-05T02:00:00Z,30.2513,-88.0778,9.68,2.83,347.5,-9999.0,'1111122,1111122,1111122' 
DISL,ioos:station:DISL:DISL:1,2011-10-05T02:30:00Z,30.2513,-88.0778,9.68,3.13,7.23,-9999.0,'1111122,1111122,1111122' 
DISL,ioos:station:DISL:DISL:1,2011-10-05T03:00:00Z,30.2513,-88.0778,9.68,2.97,359.9,-9999.0,'1111122,1111122,1111122' 
DISL,ioos:station:DISL:DISL:1,2011-10-05T03:30:00Z,30.2513,-88.0778,9.68,3.46,10.73,-9999.0,'1111122,1111122,1111122' 